TimeCDT,TemperatureF,Dew PointF,Humidity,Sea Level PressureIn,VisibilityMPH,Wind Direction,Wind SpeedMPH,Gust SpeedMPH,PrecipitationIn,Events,Conditions,WindDirDegrees,DateUTC
12:53 AM,37.9,37.0,97,29.80,0.2,Calm,Calm,-,N/A,Fog,Fog,0,2012-10-14 05:53:00
1:36 AM,33.8,33.8,100,29.76,0.2,Calm,Calm,-,N/A,Fog,Fog,0,2012-10-14 06:36:00
1:53 AM,36.0,34.0,93,29.80,0.2,North,3.5,-,N/A,Fog,Fog,10,2012-10-14 06:53:00
2:53 AM,37.9,37.0,97,29.81,0.2,Calm,Calm,-,N/A,Fog,Fog,0,2012-10-14 07:53:00
3:09 AM,37.4,37.4,100,29.77,0.5,NW,3.5,-,N/A,Fog,Fog,310,2012-10-14 08:09:00
3:39 AM,37.4,37.4,100,29.78,0.2,Calm,Calm,-,N/A,Fog,Fog,0,2012-10-14 08:39:00
3:53 AM,37.9,37.0,97,29.82,0.2,North,3.5,-,N/A,Fog,Fog,360,2012-10-14 08:53:00
4:01 AM,39.2,37.4,93,29.78,0.5,North,3.5,-,N/A,Fog,Fog,350,2012-10-14 09:01:00
4:42 AM,41.0,39.2,93,29.77,0.2,North,3.5,-,N/A,Fog,Fog,10,2012-10-14 09:42:00
4:53 AM,41.0,39.9,96,29.81,0.2,North,3.5,-,N/A,Fog,Fog,10,2012-10-14 09:53:00
5:15 AM,41.0,39.2,93,29.78,0.5,NNW,3.5,-,N/A,Fog,Fog,340,2012-10-14 10:15:00
5:34 AM,39.2,39.2,100,29.77,1.8,North,4.6,-,N/A,,Overcast,350,2012-10-14 10:34:00
5:51 AM,39.2,39.2,100,29.78,2.5,NNE,3.5,-,N/A,,Overcast,20,2012-10-14 10:51:00
5:53 AM,39.9,39.0,97,29.82,3.0,NNE,3.5,-,N/A,,Overcast,20,2012-10-14 10:53:00
6:39 AM,39.2,39.2,100,29.79,6.0,NNW,4.6,-,N/A,,Scattered Clouds,330,2012-10-14 11:39:00
6:53 AM,39.9,37.9,93,29.83,6.0,NNW,5.8,-,N/A,,Clear,330,2012-10-14 11:53:00
7:33 AM,39.2,37.4,93,29.79,7.0,North,4.6,-,N/A,,Mostly Cloudy,350,2012-10-14 12:33:00
7:48 AM,39.2,39.2,100,29.80,7.0,NNW,6.9,-,N/A,,Overcast,340,2012-10-14 12:48:00
7:53 AM,39.9,39.0,97,29.84,7.0,NNW,5.8,-,N/A,,Overcast,340,2012-10-14 12:53:00
8:19 AM,41.0,39.2,93,29.80,4.0,North,4.6,-,N/A,,Overcast,360,2012-10-14 13:19:00
8:38 AM,42.8,39.2,87,29.80,2.0,North,5.8,-,N/A,,Overcast,350,2012-10-14 13:38:00
8:53 AM,42.1,41.0,96,29.85,3.0,North,4.6,-,N/A,,Overcast,360,2012-10-14 13:53:00
9:33 AM,42.8,41.0,93,29.81,8.0,North,10.4,-,N/A,,Overcast,350,2012-10-14 14:33:00
9:53 AM,44.1,39.9,85,29.85,9.0,North,10.4,-,N/A,,Overcast,350,2012-10-14 14:53:00
10:53 AM,46.0,39.9,79,29.87,10.0,North,10.4,-,N/A,,Overcast,360,2012-10-14 15:53:00
11:39 AM,51.8,39.2,62,29.82,10.0,North,11.5,-,N/A,,Scattered Clouds,350,2012-10-14 16:39:00
11:53 AM,53.1,39.0,59,29.86,10.0,North,13.8,23.0,N/A,,Scattered Clouds,360,2012-10-14 16:53:00
12:53 PM,55.9,37.0,49,29.86,10.0,NNW,13.8,-,N/A,,Clear,340,2012-10-14 17:53:00
1:53 PM,57.9,37.0,46,29.85,10.0,NNW,16.1,21.9,N/A,,Partly Cloudy,330,2012-10-14 18:53:00
2:53 PM,57.2,37.4,48,29.80,10.0,NNW,12.7,21.9,N/A,,Partly Cloudy,330,2012-10-14 19:53:00
3:53 PM,59.0,36.0,42,29.84,10.0,NW,13.8,-,N/A,,Scattered Clouds,320,2012-10-14 20:53:00
4:53 PM,57.9,35.1,42,29.85,10.0,NNW,10.4,20.7,N/A,,Scattered Clouds,340,2012-10-14 21:53:00
5:53 PM,57.0,35.1,44,29.87,10.0,North,8.1,-,N/A,,Mostly Cloudy,350,2012-10-14 22:53:00
6:53 PM,55.0,36.0,49,29.88,10.0,NNW,5.8,-,N/A,,Overcast,340,2012-10-14 23:53:00
7:53 PM,53.1,35.1,50,29.89,10.0,NNW,3.5,-,N/A,,Overcast,340,2012-10-15 00:53:00
8:53 PM,51.1,33.1,50,29.90,10.0,NW,13.8,-,N/A,,Partly Cloudy,320,2012-10-15 01:53:00
9:53 PM,48.0,32.0,54,29.92,10.0,NW,9.2,-,N/A,,Clear,320,2012-10-15 02:53:00
10:53 PM,42.1,32.0,67,29.93,10.0,NW,8.1,-,N/A,,Clear,320,2012-10-15 03:53:00
11:53 PM,41.0,32.0,70,29.94,10.0,NW,4.6,-,N/A,,Clear,320,2012-10-15 04:53:00